Time,TemperatureF,DewpointF,PressureIn,WindDirection,WindDirectionDegrees,WindSpeedMPH,WindSpeedGustMPH,Humidity,HourlyPrecipIn,Conditions,Clouds,dailyrainin,SoftwareType,DateUTC
2013-09-10 00:11:00,58.2,57.0,30.14,North,360,3.0,-999.0,95,-99.99,,,0.00,weatherlink.com 1.10,2013-09-10 06:11:00,
2013-09-10 00:26:00,57.9,57.0,30.14,North,360,6.0,-999.0,95,-99.99,,,0.00,weatherlink.com 1.10,2013-09-10 06:26:00,
2013-09-10 00:41:00,57.9,57.0,30.14,North,360,3.0,-999.0,95,-99.99,,,0.00,weatherlink.com 1.10,2013-09-10 06:41:00,
2013-09-10 00:56:00,58.0,57.0,30.13,North,360,0.0,-999.0,95,-99.99,,,0.00,weatherlink.com 1.10,2013-09-10 06:56:00,
2013-09-10 01:11:00,58.2,57.0,30.14,North,360,1.0,-999.0,95,-99.99,,,0.00,weatherlink.com 1.10,2013-09-10 07:11:00,
2013-09-10 01:26:00,58.2,57.0,30.15,North,360,3.0,-999.0,95,-99.99,,,0.00,weatherlink.com 1.10,2013-09-10 07:26:00,
2013-09-10 01:41:00,58.2,57.0,30.15,North,360,2.0,-999.0,94,-99.99,,,0.00,weatherlink.com 1.10,2013-09-10 07:41:00,
2013-09-10 01:56:00,58.0,56.0,30.15,North,360,1.0,-999.0,94,-99.99,,,0.00,weatherlink.com 1.10,2013-09-10 07:56:00,
2013-09-10 02:11:00,58.1,56.0,30.15,North,360,0.0,-999.0,94,-99.99,,,0.00,weatherlink.com 1.10,2013-09-10 08:11:00,
2013-09-10 02:26:00,58.2,57.0,30.16,North,360,2.0,-999.0,94,-99.99,,,0.02,weatherlink.com 1.10,2013-09-10 08:26:00,
2013-09-10 02:41:00,58.2,57.0,30.16,North,360,2.0,-999.0,94,-99.99,,,0.02,weatherlink.com 1.10,2013-09-10 08:41:00,
2013-09-10 02:56:00,58.1,56.0,30.17,North,360,2.0,-999.0,94,-99.99,,,0.02,weatherlink.com 1.10,2013-09-10 08:56:00,
2013-09-10 03:11:00,57.9,56.0,30.17,North,360,2.0,-999.0,94,-99.99,,,0.02,weatherlink.com 1.10,2013-09-10 09:11:00,
2013-09-10 03:26:00,58.1,56.0,30.17,North,360,0.0,-999.0,94,-99.99,,,0.02,weatherlink.com 1.10,2013-09-10 09:26:00,
2013-09-10 03:41:00,58.2,57.0,30.16,North,360,0.0,-999.0,94,-99.99,,,0.03,weatherlink.com 1.10,2013-09-10 09:41:00,
2013-09-10 03:56:00,57.9,56.0,30.16,North,360,0.0,-999.0,93,-99.99,,,0.03,weatherlink.com 1.10,2013-09-10 09:56:00,
2013-09-10 04:11:00,58.1,56.0,30.16,North,360,0.0,-999.0,94,-99.99,,,0.03,weatherlink.com 1.10,2013-09-10 10:11:00,
2013-09-10 04:26:00,58.3,57.0,30.17,North,360,0.0,-999.0,94,-99.99,,,0.03,weatherlink.com 1.10,2013-09-10 10:26:00,
2013-09-10 04:41:00,58.2,56.0,30.17,North,360,1.0,-999.0,93,-99.99,,,0.03,weatherlink.com 1.10,2013-09-10 10:41:00,
2013-09-10 04:56:00,58.2,56.0,30.17,North,360,0.0,-999.0,93,-99.99,,,0.03,weatherlink.com 1.10,2013-09-10 10:56:00,
2013-09-10 05:11:00,58.3,56.0,30.17,North,360,0.0,-999.0,93,-99.99,,,0.03,weatherlink.com 1.10,2013-09-10 11:11:00,
2013-09-10 05:26:00,58.1,56.0,30.17,North,360,2.0,-999.0,93,-99.99,,,0.03,weatherlink.com 1.10,2013-09-10 11:26:00,
2013-09-10 05:41:00,57.7,56.0,30.18,North,360,0.0,-999.0,93,-99.99,,,0.03,weatherlink.com 1.10,2013-09-10 11:41:00,
2013-09-10 05:56:00,57.5,56.0,30.18,North,360,1.0,-999.0,94,-99.99,,,0.03,weatherlink.com 1.10,2013-09-10 11:56:00,
2013-09-10 06:11:00,57.3,56.0,30.18,North,360,0.0,-999.0,94,-99.99,,,0.04,weatherlink.com 1.10,2013-09-10 12:11:00,
2013-09-10 06:26:00,57.3,56.0,30.18,North,360,0.0,-999.0,94,-99.99,,,0.04,weatherlink.com 1.10,2013-09-10 12:26:00,
2013-09-10 06:41:00,57.3,56.0,30.18,North,360,0.0,-999.0,94,-99.99,,,0.04,weatherlink.com 1.10,2013-09-10 12:41:00,
2013-09-10 06:56:00,57.5,56.0,30.19,North,360,0.0,-999.0,94,-99.99,,,0.04,weatherlink.com 1.10,2013-09-10 12:56:00,
2013-09-10 07:11:00,57.5,56.0,30.20,North,360,1.0,-999.0,94,-99.99,,,0.04,weatherlink.com 1.10,2013-09-10 13:11:00,
2013-09-10 07:26:00,57.7,56.0,30.21,North,360,0.0,-999.0,94,-99.99,,,0.04,weatherlink.com 1.10,2013-09-10 13:26:00,
2013-09-10 07:41:00,57.7,56.0,30.21,North,360,0.0,-999.0,94,-99.99,,,0.04,weatherlink.com 1.10,2013-09-10 13:41:00,
2013-09-10 07:56:00,57.8,56.0,30.21,North,360,1.0,-999.0,94,-99.99,,,0.04,weatherlink.com 1.10,2013-09-10 13:56:00,
2013-09-10 08:11:00,57.6,56.0,30.22,North,360,0.0,-999.0,94,-99.99,,,0.04,weatherlink.com 1.10,2013-09-10 14:11:00,
2013-09-10 08:26:00,57.5,56.0,30.22,North,360,3.0,-999.0,93,-99.99,,,0.04,weatherlink.com 1.10,2013-09-10 14:26:00,
2013-09-10 08:41:00,57.4,56.0,30.23,North,360,3.0,-999.0,94,-99.99,,,0.04,weatherlink.com 1.10,2013-09-10 14:41:00,
2013-09-10 08:56:00,57.4,56.0,30.23,North,360,2.0,-999.0,94,-99.99,,,0.04,weatherlink.com 1.10,2013-09-10 14:56:00,
2013-09-10 09:11:00,57.4,56.0,30.23,North,360,0.0,-999.0,95,-99.99,,,0.06,weatherlink.com 1.10,2013-09-10 15:11:00,
2013-09-10 09:26:00,57.3,56.0,30.24,North,360,3.0,-999.0,95,-99.99,,,0.08,weatherlink.com 1.10,2013-09-10 15:26:00,
2013-09-10 09:41:00,56.9,55.0,30.24,North,360,4.0,-999.0,94,-99.99,,,0.11,weatherlink.com 1.10,2013-09-10 15:41:00,
2013-09-10 09:56:00,56.9,56.0,30.24,North,360,2.0,-999.0,95,-99.99,,,0.11,weatherlink.com 1.10,2013-09-10 15:56:00,
2013-09-10 10:11:00,56.7,55.0,30.25,North,360,6.0,-999.0,95,-99.99,,,0.11,weatherlink.com 1.10,2013-09-10 16:11:00,
2013-09-10 10:26:00,56.6,55.0,30.25,North,360,4.0,-999.0,94,-99.99,,,0.12,weatherlink.com 1.10,2013-09-10 16:26:00,
2013-09-10 10:41:00,56.9,55.0,30.25,North,360,4.0,-999.0,94,-99.99,,,0.12,weatherlink.com 1.10,2013-09-10 16:41:00,
2013-09-10 10:56:00,57.3,56.0,30.25,North,360,2.0,-999.0,94,-99.99,,,0.12,weatherlink.com 1.10,2013-09-10 16:56:00,
2013-09-10 11:11:00,57.6,56.0,30.25,North,360,2.0,-999.0,93,-99.99,,,0.12,weatherlink.com 1.10,2013-09-10 17:11:00,
2013-09-10 11:26:00,57.9,56.0,30.25,North,360,1.0,-999.0,93,-99.99,,,0.12,weatherlink.com 1.10,2013-09-10 17:26:00,
2013-09-10 11:41:00,58.2,56.0,30.25,North,360,3.0,-999.0,91,-99.99,,,0.12,weatherlink.com 1.10,2013-09-10 17:41:00,
2013-09-10 11:56:00,58.6,56.0,30.25,North,360,3.0,-999.0,90,-99.99,,,0.13,weatherlink.com 1.10,2013-09-10 17:56:00,
2013-09-10 12:11:00,58.8,56.0,30.24,North,360,2.0,-999.0,91,-99.99,,,0.17,weatherlink.com 1.10,2013-09-10 18:11:00,
2013-09-10 12:26:00,58.9,56.0,30.25,North,360,2.0,-999.0,90,-99.99,,,0.17,weatherlink.com 1.10,2013-09-10 18:26:00,
2013-09-10 12:41:00,59.3,57.0,30.24,North,360,4.0,-999.0,91,-99.99,,,0.18,weatherlink.com 1.10,2013-09-10 18:41:00,
2013-09-10 12:56:00,59.5,57.0,30.24,North,360,1.0,-999.0,90,-99.99,,,0.18,weatherlink.com 1.10,2013-09-10 18:56:00,
2013-09-10 13:11:00,59.6,57.0,30.24,North,360,2.0,-999.0,92,-99.99,,,0.18,weatherlink.com 1.10,2013-09-10 19:11:00,
2013-09-10 13:26:00,59.9,57.0,30.24,North,360,3.0,-999.0,90,-99.99,,,0.18,weatherlink.com 1.10,2013-09-10 19:26:00,
2013-09-10 13:41:00,59.6,57.0,30.24,North,360,5.0,-999.0,92,-99.99,,,0.18,weatherlink.com 1.10,2013-09-10 19:41:00,
2013-09-10 13:56:00,59.9,58.0,30.23,North,360,2.0,-999.0,92,-99.99,,,0.18,weatherlink.com 1.10,2013-09-10 19:56:00,
2013-09-10 14:11:00,60.2,58.0,30.23,North,360,2.0,-999.0,91,-99.99,,,0.18,weatherlink.com 1.10,2013-09-10 20:11:00,
2013-09-10 14:26:00,60.6,58.0,30.23,North,360,2.0,-999.0,91,-99.99,,,0.18,weatherlink.com 1.10,2013-09-10 20:26:00,
2013-09-10 14:42:00,61.2,58.0,30.23,North,360,2.0,-999.0,89,-99.99,,,0.18,weatherlink.com 1.10,2013-09-10 20:42:00,
2013-09-10 14:57:00,61.9,58.0,30.22,North,360,3.0,-999.0,87,-99.99,,,0.18,weatherlink.com 1.10,2013-09-10 20:57:00,
2013-09-10 15:11:00,62.7,59.0,30.21,North,360,6.0,-999.0,86,-99.99,,,0.18,weatherlink.com 1.10,2013-09-10 21:11:00,
2013-09-10 15:26:00,63.2,59.0,30.21,North,360,5.0,-999.0,85,-99.99,,,0.18,weatherlink.com 1.10,2013-09-10 21:26:00,
2013-09-10 15:41:00,63.3,58.0,30.21,North,360,2.0,-999.0,82,-99.99,,,0.18,weatherlink.com 1.10,2013-09-10 21:41:00,
2013-09-10 15:56:00,63.7,59.0,30.21,North,360,3.0,-999.0,83,-99.99,,,0.18,weatherlink.com 1.10,2013-09-10 21:56:00,
2013-09-10 16:11:00,63.2,58.0,30.20,North,360,4.0,-999.0,83,-99.99,,,0.18,weatherlink.com 1.10,2013-09-10 22:11:00,
2013-09-10 16:26:00,62.7,58.0,30.20,North,360,6.0,-999.0,83,-99.99,,,0.18,weatherlink.com 1.10,2013-09-10 22:26:00,
2013-09-10 16:41:00,63.2,58.0,30.21,North,360,4.0,-999.0,82,-99.99,,,0.18,weatherlink.com 1.10,2013-09-10 22:41:00,
2013-09-10 16:56:00,63.2,58.0,30.21,SSE,159,3.0,-999.0,82,-99.99,,,0.18,weatherlink.com 1.10,2013-09-10 22:56:00,
2013-09-10 17:11:00,63.0,57.0,30.21,North,360,4.0,-999.0,82,-99.99,,,0.18,weatherlink.com 1.10,2013-09-10 23:11:00,
2013-09-10 17:26:00,62.7,58.0,30.21,North,360,0.0,-999.0,84,-99.99,,,0.18,weatherlink.com 1.10,2013-09-10 23:26:00,
2013-09-10 17:41:00,62.6,57.0,30.21,North,360,3.0,-999.0,83,-99.99,,,0.18,weatherlink.com 1.10,2013-09-10 23:41:00,
2013-09-10 17:56:00,62.6,57.0,30.22,North,360,2.0,-999.0,83,-99.99,,,0.18,weatherlink.com 1.10,2013-09-10 23:56:00,
2013-09-10 18:11:00,62.5,58.0,30.22,North,360,3.0,-999.0,84,-99.99,,,0.18,weatherlink.com 1.10,2013-09-11 00:11:00,
2013-09-10 18:26:00,62.4,58.0,30.23,SSE,160,4.0,-999.0,85,-99.99,,,0.18,weatherlink.com 1.10,2013-09-11 00:26:00,
2013-09-10 18:41:00,62.2,57.0,30.23,SSE,165,3.0,-999.0,84,-99.99,,,0.18,weatherlink.com 1.10,2013-09-11 00:41:00,
2013-09-10 18:56:00,61.2,58.0,30.24,North,360,4.0,-999.0,88,-99.99,,,0.27,weatherlink.com 1.10,2013-09-11 00:56:00,
2013-09-10 19:12:00,59.8,57.0,30.24,North,360,5.0,-999.0,91,-99.99,,,0.47,weatherlink.com 1.10,2013-09-11 01:12:00,
2013-09-10 19:27:00,59.6,57.0,30.24,North,360,3.0,-999.0,92,-99.99,,,0.47,weatherlink.com 1.10,2013-09-11 01:27:00,
2013-09-10 19:41:00,59.9,57.0,30.24,North,360,0.0,-999.0,91,-99.99,,,0.47,weatherlink.com 1.10,2013-09-11 01:41:00,
2013-09-10 19:56:00,60.2,58.0,30.24,North,360,4.0,-999.0,91,-99.99,,,0.47,weatherlink.com 1.10,2013-09-11 01:56:00,
2013-09-10 20:11:00,60.3,57.0,30.24,North,360,3.0,-999.0,90,-99.99,,,0.47,weatherlink.com 1.10,2013-09-11 02:11:00,
2013-09-10 20:26:00,60.3,58.0,30.25,North,360,2.0,-999.0,92,-99.99,,,0.47,weatherlink.com 1.10,2013-09-11 02:26:00,
2013-09-10 20:41:00,60.4,58.0,30.26,North,360,3.0,-999.0,92,-99.99,,,0.48,weatherlink.com 1.10,2013-09-11 02:41:00,
2013-09-10 20:56:00,60.3,58.0,30.26,North,360,3.0,-999.0,92,-99.99,,,0.48,weatherlink.com 1.10,2013-09-11 02:56:00,
2013-09-10 21:11:00,60.3,58.0,30.26,North,360,1.0,-999.0,91,-99.99,,,0.48,weatherlink.com 1.10,2013-09-11 03:11:00,
2013-09-10 21:26:00,60.2,58.0,30.26,North,360,1.0,-999.0,91,-99.99,,,0.48,weatherlink.com 1.10,2013-09-11 03:26:00,
2013-09-10 21:41:00,60.5,58.0,30.26,North,360,0.0,-999.0,91,-99.99,,,0.48,weatherlink.com 1.10,2013-09-11 03:41:00,
2013-09-10 21:56:00,60.5,58.0,30.26,North,360,0.0,-999.0,91,-99.99,,,0.48,weatherlink.com 1.10,2013-09-11 03:56:00,
2013-09-10 22:11:00,60.5,58.0,30.26,North,360,2.0,-999.0,91,-99.99,,,0.48,weatherlink.com 1.10,2013-09-11 04:11:00,
2013-09-10 22:26:00,60.4,58.0,30.27,North,360,3.0,-999.0,92,-99.99,,,0.48,weatherlink.com 1.10,2013-09-11 04:26:00,
2013-09-10 22:41:00,60.3,58.0,30.27,North,360,3.0,-999.0,92,-99.99,,,0.48,weatherlink.com 1.10,2013-09-11 04:41:00,
2013-09-10 22:56:00,60.1,58.0,30.26,North,360,3.0,-999.0,91,-99.99,,,0.48,weatherlink.com 1.10,2013-09-11 04:56:00,
2013-09-10 23:11:00,60.0,58.0,30.27,North,360,5.0,-999.0,92,-99.99,,,0.48,weatherlink.com 1.10,2013-09-11 05:11:00,
2013-09-10 23:26:00,60.0,58.0,30.26,North,360,2.0,-999.0,92,-99.99,,,0.48,weatherlink.com 1.10,2013-09-11 05:26:00,
2013-09-10 23:41:00,59.9,58.0,30.26,North,360,3.0,-999.0,92,-99.99,,,0.48,weatherlink.com 1.10,2013-09-11 05:41:00,
2013-09-10 23:56:00,59.8,58.0,30.26,North,360,0.0,-999.0,93,-99.99,,,0.48,weatherlink.com 1.10,2013-09-11 05:56:00,